Total_Precipitation_Accumulation
0.00 0.00 0.04 0.02 0.00 0.01 0.01 0.00 0.00 0.00 0.00 0.00 0.00 0.00 0.00 0.00 0.00 0.00 0.00 0.00 0.00 0.00 0.00 0.00 0.00 0.00 0.01 0.00 0.00 0.00 0.00 0.00 0.00 0.00 0.00 0.00 0.00 0.00 0.00 0.00 0.00 0.00 0.00
0.00 0.00 0.02 0.00 0.00 0.01 0.01 0.01 0.00 0.00 0.00 0.00 0.00 0.00 0.00 0.00 0.00 0.00 0.00 0.00 0.00 0.00 0.00 0.00 0.00 0.00 0.00 0.00 0.00 0.00 0.00 0.00 0.00 0.00 0.00 0.00 0.00 0.00 0.00 0.00 0.00 0.00 0.00
0.00 0.00 0.00 0.00 0.01 0.01 0.01 0.00 0.00 0.00 0.00 0.00 0.01 0.01 0.01 0.01 0.00 0.00 0.00 0.00 0.00 0.00 0.00 0.00 0.00 0.00 0.00 0.00 0.00 0.00 0.00 0.00 0.00 0.00 0.00 0.00 0.00 0.00 0.00 0.00 0.00 0.00 0.00
0.00 0.00 0.00 0.00 0.01 0.01 0.01 0.01 0.01 0.01 0.00 0.01 0.04 0.05 0.04 0.01 0.00 0.00 0.00 0.00 0.00 0.00 0.00 0.00 0.00 0.00 0.00 0.00 0.01 0.00 0.00 0.00 0.00 0.00 0.01 0.04 0.03 0.00 0.00 0.00 0.00 0.00 0.00
0.00 0.00 0.00 0.00 0.01 0.00 0.00 0.01 0.03 0.01 0.00 0.02 0.08 0.09 0.06 0.01 0.01 0.01 0.00 0.00 0.00 0.01 0.00 0.00 0.01 0.00 0.00 0.00 0.00 0.00 0.00 0.00 0.00 0.00 0.01 0.05 0.06 0.01 0.00 0.01 0.01 0.01 0.00
0.00 0.00 0.00 0.00 0.01 0.00 0.00 0.01 0.04 0.05 0.03 0.04 0.07 0.08 0.07 0.05 0.06 0.05 0.01 0.01 0.01 0.01 0.01 0.00 0.00 0.00 0.00 0.00 0.00 0.00 0.00 0.00 0.00 0.01 0.01 0.01 0.01 0.01 0.00 0.01 0.02 0.03 0.01
0.00 0.00 0.00 0.00 0.00 0.00 0.00 0.00 0.01 0.04 0.05 0.06 0.07 0.06 0.04 0.02 0.02 0.02 0.01 0.01 0.01 0.01 0.00 0.00 0.00 0.00 0.00 0.00 0.00 0.00 0.00 0.00 0.00 0.00 0.01 0.01 0.00 0.01 0.01 0.02 0.01 0.02 0.02
0.00 0.00 0.00 0.00 0.00 0.00 0.00 0.00 0.00 0.00 0.01 0.01 0.02 0.01 0.01 0.00 0.02 0.03 0.02 0.01 0.01 0.01 0.01 0.01 0.00 0.01 0.01 0.01 0.01 0.01 0.01 0.00 0.00 0.01 0.04 0.04 0.02 0.04 0.09 0.09 0.06 0.05 0.05
0.00 0.00 0.00 0.00 0.00 0.00 0.00 0.00 0.00 0.00 0.00 0.00 0.00 0.00 0.00 0.00 0.01 0.03 0.04 0.04 0.03 0.02 0.02 0.02 0.01 0.00 0.01 0.01 0.01 0.02 0.01 0.01 0.01 0.01 0.03 0.06 0.05 0.13 0.27 0.27 0.18 0.15 0.15
0.00 0.00 0.00 0.00 0.00 0.00 0.00 0.00 0.00 0.00 0.00 0.00 0.00 0.00 0.00 0.00 0.01 0.03 0.04 0.04 0.06 0.07 0.06 0.03 0.01 0.00 0.00 0.00 0.00 0.02 0.02 0.01 0.01 0.00 0.01 0.02 0.05 0.18 0.33 0.42 0.35 0.27 0.22
0.00 0.00 0.00 0.00 0.00 0.00 0.00 0.00 0.00 0.00 0.00 0.00 0.00 0.00 0.00 0.00 0.00 0.03 0.05 0.06 0.07 0.05 0.05 0.03 0.01 0.00 0.00 0.00 0.01 0.01 0.01 0.01 0.00 0.00 0.00 0.01 0.06 0.15 0.25 0.35 0.36 0.36 0.29
0.00 0.00 0.00 0.00 0.00 0.00 0.00 0.00 0.00 0.00 0.00 0.00 0.00 0.00 0.00 0.00 0.01 0.01 0.03 0.08 0.10 0.10 0.10 0.09 0.06 0.05 0.05 0.05 0.04 0.05 0.02 0.03 0.01 0.00 0.02 0.07 0.08 0.12 0.19 0.25 0.28 0.29 0.26
0.00 0.00 0.00 0.00 0.00 0.00 0.00 0.00 0.00 0.00 0.00 0.00 0.00 0.00 0.00 0.00 0.01 0.01 0.02 0.03 0.06 0.11 0.09 0.13 0.14 0.11 0.10 0.07 0.03 0.02 0.02 0.04 0.05 0.01 0.02 0.08 0.10 0.12 0.23 0.24 0.19 0.15 0.13
0.00 0.00 0.00 0.00 0.00 0.00 0.00 0.00 0.00 0.00 0.00 0.00 0.00 0.00 0.00 0.00 0.00 0.00 0.01 0.01 0.02 0.03 0.04 0.06 0.06 0.07 0.05 0.03 0.01 0.00 0.01 0.01 0.01 0.02 0.02 0.05 0.07 0.10 0.21 0.23 0.16 0.11 0.10
0.00 0.00 0.00 0.00 0.00 0.00 0.00 0.00 0.00 0.00 0.00 0.00 0.00 0.00 0.00 0.00 0.00 0.00 0.00 0.00 0.01 0.02 0.02 0.02 0.03 0.05 0.06 0.04 0.03 0.02 0.02 0.02 0.01 0.02 0.03 0.02 0.04 0.05 0.11 0.14 0.11 0.10 0.09
0.00 0.00 0.00 0.00 0.00 0.00 0.00 0.00 0.00 0.00 0.00 0.00 0.00 0.00 0.00 0.00 0.00 0.00 0.00 0.01 0.02 0.02 0.02 0.04 0.07 0.08 0.11 0.16 0.16 0.07 0.02 0.01 0.01 0.01 0.01 0.01 0.02 0.03 0.05 0.08 0.07 0.06 0.06
0.00 0.00 0.00 0.00 0.00 0.00 0.00 0.00 0.00 0.00 0.00 0.00 0.00 0.00 0.00 0.00 0.00 0.00 0.00 0.01 0.03 0.04 0.05 0.07 0.13 0.14 0.18 0.25 0.17 0.08 0.02 0.00 0.00 0.00 0.00 0.00 0.01 0.01 0.03 0.04 0.03 0.03 0.04
0.00 0.00 0.00 0.00 0.00 0.00 0.00 0.00 0.00 0.00 0.00 0.00 0.00 0.00 0.00 0.00 0.01 0.01 0.03 0.06 0.11 0.11 0.08 0.12 0.25 0.23 0.22 0.22 0.12 0.08 0.02 0.01 0.01 0.00 0.00 0.00 0.00 0.00 0.01 0.03 0.02 0.02 0.03
0.00 0.00 0.00 0.00 0.00 0.00 0.00 0.00 0.00 0.00 0.00 0.00 0.00 0.01 0.01 0.03 0.05 0.08 0.11 0.18 0.22 0.19 0.17 0.21 0.26 0.21 0.13 0.12 0.13 0.11 0.05 0.04 0.01 0.01 0.00 0.00 0.00 0.00 0.00 0.00 0.01 0.02 0.03
0.01 0.01 0.01 0.01 0.00 0.00 0.01 0.01 0.01 0.01 0.01 0.01 0.01 0.02 0.03 0.03 0.07 0.11 0.12 0.15 0.21 0.22 0.22 0.18 0.15 0.19 0.15 0.14 0.27 0.28 0.11 0.04 0.03 0.01 0.00 0.00 0.00 0.01 0.00 0.00 0.00 0.00 0.01
0.02 0.03 0.05 0.05 0.04 0.04 0.05 0.07 0.07 0.07 0.06 0.06 0.08 0.07 0.05 0.05 0.09 0.10 0.07 0.08 0.10 0.10 0.17 0.21 0.18 0.14 0.07 0.12 0.23 0.23 0.09 0.06 0.11 0.04 0.02 0.03 0.03 0.02 0.01 0.01 0.01 0.00 0.00
0.14 0.19 0.19 0.21 0.21 0.18 0.17 0.17 0.17 0.19 0.16 0.12 0.12 0.10 0.09 0.09 0.09 0.07 0.03 0.02 0.03 0.10 0.13 0.15 0.19 0.15 0.10 0.11 0.17 0.24 0.10 0.09 0.12 0.08 0.08 0.12 0.09 0.04 0.02 0.03 0.02 0.01 0.00
0.25 0.28 0.29 0.32 0.34 0.33 0.35 0.36 0.34 0.32 0.26 0.20 0.18 0.18 0.16 0.12 0.07 0.04 0.02 0.03 0.04 0.10 0.15 0.19 0.20 0.18 0.17 0.16 0.20 0.23 0.12 0.08 0.09 0.09 0.12 0.14 0.12 0.08 0.06 0.06 0.04 0.02 0.01
0.35 0.43 0.52 0.58 0.61 0.64 0.64 0.60 0.50 0.41 0.35 0.33 0.27 0.21 0.12 0.06 0.03 0.02 0.02 0.05 0.09 0.16 0.17 0.17 0.15 0.12 0.10 0.14 0.15 0.16 0.19 0.19 0.20 0.10 0.08 0.08 0.09 0.09 0.11 0.10 0.06 0.05 0.04
0.52 0.61 0.73 0.82 0.85 0.85 0.81 0.68 0.52 0.42 0.33 0.26 0.19 0.11 0.05 0.02 0.01 0.00 0.01 0.04 0.09 0.14 0.13 0.12 0.09 0.09 0.08 0.10 0.17 0.23 0.26 0.29 0.34 0.33 0.22 0.16 0.16 0.15 0.14 0.08 0.05 0.05 0.04
0.60 0.61 0.62 0.65 0.68 0.70 0.68 0.58 0.44 0.33 0.23 0.15 0.08 0.04 0.02 0.01 0.00 0.01 0.02 0.04 0.11 0.17 0.15 0.12 0.09 0.08 0.13 0.19 0.23 0.24 0.25 0.25 0.25 0.29 0.22 0.15 0.10 0.06 0.04 0.03 0.03 0.04 0.04